Theta_e
343 341 341 340 340 340 341 341 342 342 343 343 343 341 337 336 331 329 329 332 333 337 341 340 348 351 352 352 353 352 353 353 352 354 355 356 357 349 344 344 344 344 343 342 342 342 342 341 341 343 344 344 345 346 346 347 348 350 349 350 351 353 354 355 356 356 356 356 356 357 358 360 361 363
343 342 340 339 339 339 339 339 341 341 341 341 341 341 340 340 334 333 329 330 336 337 342 343 345 350 351 352 353 353 353 351 353 355 355 355 356 345 343 343 344 343 342 341 340 340 340 341 341 340 340 341 342 344 344 345 345 346 346 348 349 350 351 351 353 354 354 354 355 354 355 356 356 357
341 340 338 338 338 338 338 338 338 339 339 340 340 340 340 339 338 336 334 329 335 340 338 343 346 351 352 352 353 353 354 353 353 355 356 356 350 346 347 341 341 341 341 340 339 337 337 338 338 338 338 339 340 341 342 342 343 344 344 345 346 346 347 349 350 351 352 352 353 352 352 352 353 354
339 338 337 337 336 337 337 336 337 338 338 339 339 339 339 339 339 338 335 332 331 339 340 343 347 350 351 352 352 353 354 354 352 356 357 357 350 354 356 346 340 339 338 338 338 336 335 336 337 337 337 338 339 341 340 339 340 341 341 341 343 344 345 345 346 348 349 350 350 350 350 350 352 353
339 338 337 337 337 337 336 335 336 336 337 337 338 339 338 338 339 338 335 332 333 338 342 343 346 348 350 349 352 353 354 355 357 354 358 359 357 357 358 358 347 341 338 337 337 336 336 336 335 335 336 337 338 340 341 340 338 338 337 338 339 339 342 342 342 345 346 347 347 348 348 349 350 352
338 339 337 337 337 338 336 335 335 335 336 335 336 337 337 337 337 339 336 334 334 333 339 340 346 349 348 348 351 351 352 353 355 356 357 358 358 359 359 359 360 346 341 337 335 335 336 336 335 335 335 336 336 337 337 337 336 335 335 335 336 336 335 336 338 340 342 344 345 346 347 347 348 350
336 336 336 335 337 338 336 335 335 336 335 336 335 335 337 336 337 339 338 336 333 334 336 341 341 343 346 346 348 351 353 355 355 355 354 354 355 356 357 358 358 347 340 337 336 335 335 336 335 335 335 334 333 333 333 333 334 334 334 333 334 335 334 334 335 337 339 341 343 345 345 346 347 348
336 335 335 335 336 338 336 335 336 336 336 336 335 335 336 336 336 337 338 338 336 336 334 339 339 343 344 347 349 351 352 352 352 353 355 353 352 353 354 354 355 349 339 337 336 335 335 334 334 333 333 332 331 331 331 331 331 331 331 331 331 331 331 330 332 335 335 336 339 343 344 345 344 343
335 336 336 337 338 337 334 336 336 336 336 335 335 334 335 335 336 337 337 337 337 336 334 337 341 343 343 348 348 349 348 348 350 350 351 353 353 353 353 353 355 344 338 337 336 335 334 334 334 333 333 332 331 330 329 328 328 328 328 328 328 329 329 329 328 330 331 332 334 335 338 342 345 345
335 335 338 338 338 335 331 336 338 337 336 336 335 335 336 336 336 335 336 336 336 336 336 336 337 340 341 342 344 347 348 348 347 347 348 349 349 350 350 353 354 354 355 354 351 339 336 334 332 331 332 331 330 328 327 326 324 323 323 321 321 324 325 326 328 328 328 329 331 333 335 340 342 343
336 336 338 338 339 339 339 339 339 338 337 336 336 336 336 337 336 335 334 335 335 334 334 335 337 338 340 342 341 344 347 349 348 346 345 344 348 348 348 349 352 353 352 347 341 343 343 339 339 332 329 329 329 328 326 324 321 320 319 318 317 318 319 320 323 326 325 326 327 328 329 333 339 341
335 336 336 336 336 338 339 340 340 338 336 337 337 337 337 337 336 334 335 335 335 334 334 335 335 337 339 340 342 339 340 341 341 344 344 342 344 345 347 348 348 350 349 350 349 341 338 336 333 329 328 329 328 327 327 327 326 322 319 318 320 320 318 318 320 322 322 322 322 323 325 326 333 337
334 335 335 336 336 337 338 328 329 331 330 340 337 337 338 337 336 335 335 334 334 334 334 334 336 336 336 338 338 336 337 338 340 343 342 342 344 346 345 346 347 347 347 348 347 346 346 344 343 343 343 343 338 336 331 334 333 326 319 318 321 322 320 318 319 320 321 320 319 319 321 325 329 334
335 334 333 336 333 337 337 334 326 323 324 326 334 339 336 337 336 336 335 334 334 334 333 333 334 333 333 336 337 337 339 342 343 342 341 339 344 343 340 343 345 347 346 344 342 345 347 345 344 343 342 345 344 346 343 342 339 333 324 322 321 322 322 319 318 318 319 318 318 318 318 321 326 328
333 335 336 336 337 338 337 336 325 323 321 322 324 327 330 331 338 334 335 335 335 334 333 334 334 333 333 336 338 338 340 341 340 342 342 339 340 338 337 338 344 345 345 343 342 343 347 344 342 342 342 344 345 344 345 337 333 329 327 324 323 322 322 322 321 319 318 317 317 317 317 319 322 324
333 334 336 337 338 338 338 337 337 330 322 320 321 322 324 327 330 331 338 336 334 334 333 333 334 334 334 336 338 338 339 340 340 341 341 340 339 337 337 339 338 345 345 343 340 341 346 344 343 342 343 343 344 344 337 331 332 329 326 325 324 324 323 323 324 324 321 319 319 321 320 321 322 323
333 335 336 337 337 337 337 338 337 337 337 323 319 320 321 322 324 327 329 331 338 337 335 334 335 336 337 336 337 340 340 342 339 340 337 338 339 341 340 340 342 342 344 344 340 339 343 342 341 341 344 345 345 343 333 331 331 328 326 325 325 325 324 323 324 324 322 321 320 321 321 320 321 321
322 324 325 328 333 337 337 337 337 337 336 337 334 329 329 331 328 322 324 324 326 333 337 337 335 338 339 337 339 341 341 340 339 340 338 340 340 337 338 343 345 345 346 343 341 338 342 342 342 341 345 345 343 343 337 330 328 328 325 324 323 323 322 322 322 321 321 321 320 319 317 317 318 320
320 319 320 320 321 326 334 336 335 336 335 336 336 334 331 331 333 334 335 334 335 336 338 338 338 340 341 341 341 341 342 342 343 343 342 343 342 343 344 342 342 342 345 347 342 336 342 342 340 341 343 343 343 343 332 329 327 325 322 322 322 321 320 321 321 319 319 319 318 316 315 315 315 316
319 319 320 319 318 321 327 328 323 325 334 335 334 334 332 331 333 334 330 330 333 337 339 340 340 340 342 334 342 342 342 342 343 344 345 345 343 340 337 335 338 339 343 346 343 338 339 340 341 342 344 343 341 339 341 327 324 322 321 322 321 320 318 319 319 318 319 319 318 316 313 311 311 311
319 319 320 319 317 317 322 321 319 322 320 332 334 334 332 332 333 334 337 328 325 326 326 327 329 329 328 326 326 325 329 338 340 344 341 339 341 337 335 335 336 338 341 342 344 341 340 339 341 340 340 342 342 340 338 336 323 321 319 320 319 317 317 317 317 317 318 318 318 317 315 311 310 310
319 319 321 321 316 316 315 312 311 317 323 330 333 335 333 332 332 333 336 336 333 324 324 324 327 327 327 328 327 326 326 327 334 341 337 340 340 337 337 336 336 338 339 342 345 341 339 339 341 339 338 338 340 338 337 334 328 321 317 318 318 315 316 315 315 316 317 318 317 316 314 310 310 318
318 318 318 319 316 313 312 310 310 313 321 331 334 335 334 332 331 333 336 335 334 333 333 333 334 333 329 335 339 336 324 329 336 343 342 343 340 338 338 338 336 333 337 342 347 339 339 338 339 340 335 334 336 334 335 334 332 331 330 327 325 315 317 315 313 312 313 315 315 315 311 308 313 323
316 317 317 318 314 309 308 307 308 308 314 330 335 336 334 332 332 336 336 337 335 334 334 334 336 337 337 339 340 338 335 335 342 344 346 346 343 341 340 339 338 336 342 342 346 342 342 341 337 341 339 335 332 334 334 333 332 331 332 330 330 318 318 314 311 309 310 311 311 312 309 308 315 326
315 315 316 317 316 309 308 307 306 306 310 315 327 328 330 332 333 333 336 336 337 336 336 335 336 337 337 339 340 339 339 339 342 345 344 347 347 344 341 340 338 342 344 340 339 346 338 339 337 337 335 336 335 333 334 334 332 332 332 334 333 327 326 327 323 321 309 308 308 308 307 309 313 325
317 316 316 317 315 310 308 308 306 306 309 312 319 314 310 314 320 334 337 336 336 335 334 335 335 335 336 337 337 338 338 339 338 339 343 345 347 348 346 345 342 340 343 341 331 346 342 337 339 336 336 336 333 334 332 334 334 333 333 333 335 331 330 330 331 329 325 322 318 313 313 309 312 317
317 318 317 317 314 308 306 307 308 308 309 312 312 308 311 313 319 327 334 335 334 334 334 333 331 333 334 334 335 335 336 337 338 339 338 339 343 341 346 348 348 346 348 343 344 347 346 342 341 339 337 338 335 331 333 334 334 333 332 332 333 331 330 333 332 331 328 325 322 307 307 307 310 313
318 316 316 313 306 304 304 307 310 311 310 314 306 309 313 316 319 326 326 328 332 332 330 330 330 331 333 333 333 333 334 337 338 338 338 339 341 342 346 348 348 348 344 344 345 349 348 343 339 343 344 339 335 334 335 335 335 332 332 332 333 332 331 331 331 331 330 327 323 320 322 319 317 318
318 310 304 303 305 308 308 310 314 315 313 311 312 312 314 322 321 321 321 321 322 322 322 322 322 324 325 327 328 330 331 334 334 332 333 336 339 343 347 343 341 339 340 341 341 342 342 342 339 337 340 341 339 338 338 336 336 334 333 330 331 333 331 331 332 331 329 329 328 324 326 328 323 322
310 308 308 309 310 313 315 321 322 323 321 316 317 318 321 321 320 319 319 318 317 317 318 320 320 322 324 325 328 329 330 330 330 330 330 330 334 335 334 333 332 335 339 341 341 341 339 336 337 338 337 336 337 335 335 336 335 336 333 335 336 333 332 332 331 331 330 329 330 329 328 329 328 324
319 318 315 315 311 312 315 318 318 319 322 323 321 321 322 323 323 322 318 317 317 317 317 318 319 323 325 325 325 324 324 325 328 331 330 330 330 329 330 328 327 328 333 335 339 340 340 341 340 338 335 333 331 332 333 335 338 336 333 335 336 335 333 332 331 331 331 330 330 329 329 328 329 328
324 323 318 316 322 323 322 322 323 323 322 323 323 322 321 322 325 326 324 322 320 319 320 319 319 321 323 321 322 323 324 324 326 327 330 330 329 330 329 326 326 329 330 329 329 333 340 342 339 336 337 337 334 333 334 338 339 338 335 333 336 335 332 332 331 331 332 331 329 329 329 329 329 330
322 322 321 321 321 321 321 322 322 323 323 323 323 324 322 322 322 322 323 322 322 322 321 318 318 320 321 320 320 321 322 323 325 325 326 329 328 327 328 326 324 323 322 324 325 328 333 337 342 340 340 341 341 335 334 334 335 337 336 333 333 334 335 335 333 332 332 331 330 330 330 331 331 331
321 322 320 320 320 320 320 320 320 321 321 321 322 323 320 323 323 322 321 322 322 321 320 320 320 322 323 322 320 320 320 322 323 323 322 324 326 325 324 322 321 321 321 322 322 324 332 336 337 338 338 337 337 336 336 337 336 334 335 334 334 334 334 334 334 333 332 333 332 330 330 331 332 333
320 319 318 318 319 319 319 318 319 320 319 320 321 322 323 324 323 322 322 322 322 321 321 320 322 322 323 321 321 320 320 320 321 322 323 323 324 324 324 321 320 319 321 321 322 323 326 333 336 334 335 335 334 332 331 337 338 333 332 333 335 334 333 334 334 333 333 333 334 333 333 333 333 335
317 318 317 317 317 317 317 318 319 318 317 319 320 322 322 323 324 323 323 322 324 322 322 321 321 322 322 321 320 320 319 318 320 320 320 320 321 322 322 321 321 319 320 320 321 322 325 323 325 328 329 328 326 326 329 326 329 337 335 332 331 333 333 333 334 334 333 332 334 334 332 331 334 335
316 316 316 316 316 316 316 317 318 319 318 318 319 321 322 322 324 324 323 320 324 323 323 322 323 323 323 321 320 319 319 318 318 318 318 320 319 320 320 320 320 319 318 319 321 322 323 322 321 322 322 321 320 320 320 325 318 321 337 334 330 331 332 332 333 332 334 334 333 333 334 335 334 336
315 315 315 315 315 315 316 316 317 318 318 318 319 320 321 323 323 324 325 325 323 323 323 324 323 321 322 320 320 320 320 319 318 317 317 318 319 319 320 318 318 318 318 319 319 321 321 319 318 318 320 318 316 317 316 321 325 324 311 330 333 329 333 333 333 332 332 335 334 335 336 335 335 337
312 311 310 310 310 311 311 311 313 313 314 315 316 317 318 319 321 323 323 323 323 324 324 324 323 322 321 321 319 319 319 318 318 317 317 318 319 318 319 320 318 318 319 318 318 319 321 320 318 319 319 316 316 317 318 320 321 326 315 305 328 330 330 332 330 333 333 331 332 334 335 335 333 324
306 305 304 303 303 304 305 305 307 307 306 308 309 310 312 311 312 315 315 318 321 322 322 321 320 319 321 321 320 320 319 319 318 318 318 317 318 318 319 319 318 316 316 316 317 318 319 320 320 318 318 319 320 320 319 320 322 320 320 316 303 322 331 330 330 330 329 331 332 331 330 329 332 331
301 299 299 299 298 299 299 300 302 303 302 302 303 303 304 304 303 305 306 306 310 311 314 318 320 321 321 321 321 321 320 318 318 319 319 317 317 318 318 317 315 316 316 315 316 315 318 320 324 322 324 320 318 319 320 320 317 319 317 317 309 307 313 322 333 332 329 329 329 328 327 327 328 328
297 296 297 297 296 295 296 296 296 298 298 299 299 299 300 301 300 300 301 301 301 303 305 307 310 314 318 320 321 318 319 320 320 319 317 317 318 317 317 317 316 316 316 315 315 317 320 318 323 323 320 320 321 317 314 315 316 318 319 319 318 310 308 308 309 317 332 331 329 327 325 325 329 327
296 294 294 295 295 294 294 294 294 294 295 297 297 297 297 297 296 296 295 296 296 298 299 301 303 306 309 314 318 320 319 319 318 319 319 317 318 319 318 317 317 318 318 319 319 319 320 322 322 321 320 320 318 319 316 317 318 319 318 318 318 319 318 312 310 311 317 319 318 325 332 330 327 319
293 293 292 293 293 293 293 293 293 293 293 293 295 296 295 295 294 294 294 294 294 295 298 299 300 303 306 308 313 317 318 319 319 319 318 318 317 319 319 319 318 318 318 319 319 319 320 320 322 322 320 320 320 319 317 316 316 319 318 318 321 322 319 320 318 313 313 313 313 311 312 315 316 314
293 292 291 291 291 292 292 292 292 292 292 292 292 294 295 294 294 294 294 294 294 295 297 298 300 301 304 306 308 311 313 313 316 318 319 320 318 318 317 318 318 317 317 317 317 318 318 319 319 319 321 319 318 320 320 319 321 318 318 319 319 319 319 323 321 320 320 322 313 308 309 311 313 313
Wind_Speed
12 10 12 11 10 9 9 8 8 9 8 8 8 9 11 11 10 10 9 10 8 7 8 7 5 8 7 7 6 6 7 9 10 8 8 8 7 11 15 15 15 15 15 15 15 15 15 15 15 15 16 16 16 16 16 16 16 17 17 17 18 17 16 16 16 15 15 15 14 14 14 14 14 14
9 10 10 9 10 10 9 8 8 10 12 11 11 11 11 10 12 11 12 13 7 7 5 7 6 4 6 6 5 6 7 10 11 7 7 7 7 11 14 14 15 14 14 14 14 14 14 14 14 14 15 15 15 15 16 16 16 17 17 17 17 16 16 15 15 16 16 15 15 15 14 14 14 14
11 10 13 11 11 10 10 12 10 9 11 12 12 12 10 10 13 12 10 12 9 7 9 7 6 5 6 6 6 5 6 7 9 7 6 6 10 12 9 11 11 12 13 13 13 13 13 13 13 14 14 14 15 15 15 16 16 16 16 16 16 15 15 15 16 16 16 15 15 15 15 15 14 14
13 14 14 13 11 10 11 13 12 9 9 10 11 12 12 12 12 12 12 13 15 6 8 6 5 8 6 5 6 6 5 5 8 6 6 6 6 5 5 9 12 12 12 12 12 12 13 13 13 13 13 13 14 14 15 15 15 15 15 15 15 15 16 16 16 16 16 15 15 15 15 15 15 14
13 13 16 14 14 12 13 12 11 11 10 10 10 10 11 11 12 12 12 13 14 9 7 7 5 5 5 5 6 6 5 4 4 5 4 4 4 4 4 5 8 10 10 11 11 11 11 12 12 12 12 13 13 14 14 14 14 15 15 14 15 15 15 15 15 15 15 15 15 15 15 15 15 14
11 13 13 14 15 12 12 12 13 12 11 11 11 11 11 11 11 11 11 12 12 14 7 9 4 3 5 6 5 7 6 5 3 4 4 3 4 4 4 4 4 8 8 9 9 10 10 11 11 11 12 13 13 13 14 14 14 14 14 14 15 15 15 15 16 16 16 15 15 15 15 15 15 14
13 12 13 14 13 10 14 15 13 12 12 11 12 14 11 12 12 11 12 11 12 14 11 8 8 8 5 8 6 6 5 5 5 5 5 4 3 3 4 4 4 5 7 8 9 10 10 10 11 11 12 12 12 13 13 13 14 14 14 14 14 15 15 16 16 16 16 15 14 14 15 15 14 13
13 15 14 15 14 12 15 14 12 12 13 12 12 13 12 12 13 11 10 12 11 10 11 10 11 7 8 6 4 4 4 4 5 5 4 2 3 3 3 4 4 5 8 9 9 10 10 11 11 12 12 11 11 12 12 12 12 13 13 14 14 15 16 16 16 16 16 15 14 15 16 15 13 13
15 14 14 15 15 14 15 14 13 12 15 13 12 13 12 12 11 10 10 10 10 10 12 9 7 7 8 4 4 5 5 3 3 2 4 5 4 3 3 3 4 6 8 8 9 9 10 10 11 11 11 10 11 11 11 11 12 12 13 14 14 15 15 16 16 16 15 15 15 15 14 13 13 14
15 14 13 14 14 12 16 14 13 13 15 14 14 15 13 12 11 11 11 11 11 11 12 10 9 6 8 4 4 5 6 5 4 3 3 2 3 3 3 4 4 3 4 4 5 7 8 9 10 10 10 10 10 10 11 11 11 12 12 13 13 14 14 14 14 14 14 14 13 12 12 12 13 14
13 13 11 12 14 14 14 15 14 14 15 15 17 15 14 12 12 11 11 10 11 12 12 11 10 8 7 7 7 3 4 5 5 5 4 4 3 3 4 5 4 3 6 7 8 8 7 7 7 8 10 10 11 10 10 10 11 12 12 12 12 13 13 12 12 12 12 12 12 11 12 12 13 14
12 12 12 11 13 12 13 13 12 14 14 14 15 14 13 14 14 12 11 11 11 11 11 11 10 9 9 6 3 2 4 5 4 4 5 6 5 5 4 5 5 3 3 4 4 6 6 6 7 8 8 9 10 10 9 10 10 10 11 11 11 11 11 11 12 12 12 12 12 12 12 12 12 13
13 13 11 11 11 15 18 19 18 17 15 12 12 14 14 13 13 12 11 11 11 11 11 11 9 9 10 10 9 8 8 10 9 5 6 5 5 5 4 4 5 5 4 3 4 5 6 5 6 5 5 6 8 9 10 8 8 10 9 9 9 10 11 11 11 11 11 11 10 11 11 12 12 13
10 11 10 12 20 22 21 20 20 20 20 21 18 14 14 16 14 14 12 12 11 11 12 12 10 11 10 9 10 10 10 7 5 4 5 8 6 4 6 6 5 4 5 5 7 7 6 6 7 6 7 6 6 6 5 5 6 7 10 9 10 10 10 10 11 11 10 10 10 11 11 12 11 11
10 10 12 13 16 19 21 19 20 20 22 22 23 21 19 17 16 16 15 13 12 11 11 10 10 10 11 11 8 9 8 8 9 7 6 8 5 7 6 7 1 4 7 6 6 7 5 6 7 6 7 6 5 5 6 6 7 7 7 7 7 8 8 9 9 9 10 10 10 11 11 10 10 11
10 11 11 12 12 12 13 15 16 19 20 21 22 22 21 21 22 20 17 14 12 12 12 13 12 11 11 10 9 8 8 9 8 7 6 8 8 8 8 5 5 3 8 5 5 6 4 5 6 7 7 5 5 6 3 4 5 5 5 6 6 6 7 7 8 8 7 8 8 7 7 8 9 10
11 11 11 12 12 12 17 16 14 14 16 20 23 22 22 21 23 23 22 21 15 12 13 12 13 12 9 10 10 10 11 8 9 8 8 9 8 7 7 7 6 3 6 5 4 6 5 5 5 7 6 5 5 2 3 5 6 6 6 6 6 6 6 7 7 7 8 8 9 9 10 10 10 11
11 10 10 10 11 12 14 13 14 14 16 15 15 17 17 15 18 20 23 21 20 16 12 11 12 10 10 11 10 10 9 10 10 7 8 7 8 9 10 8 4 3 7 7 5 5 5 5 6 8 6 4 4 4 7 9 8 6 6 5 5 5 6 6 6 7 8 9 9 9 10 11 12 13
9 11 12 11 11 13 13 12 13 14 15 15 15 15 16 18 17 17 15 14 13 13 10 12 12 10 11 12 10 8 9 11 9 9 9 8 8 5 0 1 2 3 7 8 7 6 3 5 6 7 6 4 4 4 6 8 6 6 6 5 5 5 5 5 6 7 8 7 7 7 8 10 11 11
12 12 12 13 11 12 14 16 18 16 14 14 17 16 15 16 16 15 17 16 15 12 11 12 11 10 10 11 10 9 9 8 6 3 2 3 4 5 7 8 6 7 7 10 9 5 4 4 5 4 4 4 4 4 4 6 8 7 7 6 6 6 5 5 6 7 7 6 6 9 9 9 9 8
10 11 13 13 11 11 10 11 13 16 16 14 16 16 15 14 13 13 12 17 18 18 18 17 16 14 12 13 14 15 15 9 7 5 5 7 7 9 9 8 7 8 6 8 9 7 5 5 5 4 2 4 4 4 5 4 6 8 7 6 6 6 6 6 6 7 8 7 6 6 10 10 8 7
8 12 22 22 15 12 12 15 9 14 17 16 16 16 15 13 14 13 12 9 12 17 16 16 15 14 14 14 14 14 13 13 12 9 9 8 8 9 7 6 8 6 6 7 9 7 6 5 5 4 2 2 2 2 3 3 3 5 5 6 7 7 6 6 6 6 7 8 8 7 6 9 11 7
8 9 11 20 20 17 17 22 22 7 15 14 15 13 14 14 14 12 12 12 11 11 11 9 9 8 10 9 7 7 13 15 13 11 11 8 8 8 8 8 5 6 6 8 12 8 5 6 5 5 4 4 1 1 3 4 4 4 4 4 4 4 5 5 6 7 7 8 8 8 9 9 8 5
9 9 9 13 22 22 22 22 23 24 11 12 12 11 14 13 13 11 12 12 10 10 10 9 9 8 6 6 6 5 6 9 11 11 9 8 9 7 8 10 9 7 3 5 14 9 6 7 5 7 4 3 4 3 2 3 3 4 4 5 4 4 5 6 4 4 5 6 7 8 11 12 10 6
8 9 10 11 18 18 20 22 26 24 22 17 6 5 3 5 8 12 11 15 16 11 10 9 10 7 6 6 7 6 7 7 10 9 7 8 9 9 9 10 9 4 2 4 13 7 6 7 7 7 3 1 3 4 3 3 3 3 4 4 4 3 4 3 4 3 4 4 6 8 10 11 11 8
6 8 9 10 14 18 18 21 22 21 20 20 11 12 12 10 11 9 9 10 12 10 9 10 10 10 9 8 8 8 7 6 4 3 6 6 7 7 8 7 7 6 4 5 13 9 6 7 9 9 6 5 3 4 4 3 3 3 4 3 4 4 4 4 3 3 3 3 4 5 7 10 9 7
5 5 6 8 14 18 19 18 19 19 20 15 14 19 18 16 12 6 3 7 8 8 8 8 8 9 8 7 8 7 6 5 5 4 3 4 5 4 5 5 6 5 2 7 11 10 6 6 9 10 8 8 5 4 3 5 3 3 4 4 4 4 4 4 5 4 3 3 4 7 7 6 6 4
5 5 6 8 14 14 17 17 17 19 18 14 19 19 19 16 13 10 8 3 5 6 5 5 6 6 6 6 5 3 4 4 2 1 1 0 6 7 6 5 3 2 4 5 7 6 5 4 7 7 8 9 7 6 5 2 3 5 5 3 3 4 4 4 4 3 3 3 4 4 4 4 3 4
4 5 9 12 13 13 14 15 12 10 13 17 17 18 17 14 10 10 9 9 10 10 8 8 7 7 7 5 4 3 4 5 5 3 4 3 2 5 1 4 5 5 5 4 2 2 1 1 3 2 0 5 5 3 3 4 5 5 5 6 3 5 5 5 4 4 3 3 3 3 4 4 5 5
7 7 9 11 10 6 9 9 7 5 7 12 14 15 14 9 10 9 9 9 11 10 8 9 8 6 6 6 6 7 7 7 5 5 1 4 4 1 3 4 3 2 3 4 4 4 3 4 5 6 5 4 1 2 2 2 4 3 5 4 3 4 4 5 5 4 4 4 3 3 2 3 4 5
6 6 6 6 8 7 6 6 5 4 5 7 7 7 7 7 7 8 9 9 9 8 8 8 7 6 6 7 9 9 8 7 5 3 1 2 1 4 4 4 4 3 3 3 0 1 0 3 6 7 6 6 5 2 3 4 2 4 4 4 4 3 4 5 4 4 4 4 4 3 2 3 3 4
7 6 6 6 5 5 3 3 4 5 4 4 4 4 4 5 6 7 8 7 7 7 6 6 6 6 7 9 8 7 7 7 5 5 4 1 3 2 6 4 2 2 3 5 4 2 3 4 4 5 4 3 6 7 5 4 3 4 4 4 4 3 5 6 5 4 5 5 4 4 4 4 3 4
5 4 5 5 6 5 5 5 5 5 6 5 3 4 4 4 5 5 5 5 5 5 6 7 6 6 7 7 7 7 7 7 6 5 6 3 3 1 3 5 5 5 4 2 4 4 4 1 2 4 4 3 3 6 6 3 2 3 4 5 5 4 4 4 5 5 6 5 4 3 4 4 4 4
3 5 6 6 6 6 6 6 6 6 5 5 4 3 2 3 4 4 4 3 4 4 5 5 5 5 4 4 6 5 5 5 5 4 5 3 2 2 5 7 7 5 3 1 3 3 2 3 5 5 5 5 4 2 2 3 3 2 3 4 4 4 3 5 5 6 6 4 4 4 3 3 4 4
4 4 6 6 6 6 5 4 4 4 5 5 4 3 2 2 2 2 3 2 1 3 4 4 3 4 4 4 4 5 4 4 4 5 5 6 5 5 6 7 6 5 5 5 5 4 2 3 5 6 5 4 4 4 5 4 2 3 3 3 3 4 4 4 5 6 6 4 3 3 3 2 2 4
6 5 5 6 6 6 6 6 5 4 4 4 4 3 3 2 1 1 2 1 2 2 3 3 2 3 4 4 4 4 4 4 5 6 6 5 5 4 6 6 6 6 5 4 4 3 3 3 2 3 5 3 3 3 2 6 5 2 4 4 3 4 4 5 5 5 5 4 4 4 3 2 2 3
6 6 6 6 6 7 7 7 6 5 4 5 5 4 3 3 2 2 1 1 2 2 3 2 2 2 3 3 3 3 2 4 4 4 4 3 4 4 5 5 5 5 5 3 2 2 2 4 4 4 4 3 3 4 2 1 6 7 1 3 3 4 5 6 5 5 5 4 4 4 3 3 3 3
7 7 7 7 8 8 8 8 8 7 7 6 6 6 4 3 2 1 2 2 2 1 1 1 1 1 2 2 2 2 3 3 3 4 3 2 2 3 3 5 5 4 4 2 3 2 2 4 4 4 3 3 4 3 3 1 1 4 6 2 3 3 5 6 6 5 5 4 4 4 3 3 2 1
9 9 9 9 9 9 9 10 9 9 9 8 9 8 8 8 7 5 4 4 4 2 1 1 1 0 0 1 1 2 2 3 4 3 1 0 0 2 2 3 4 3 2 2 2 1 2 3 4 3 4 3 2 3 2 2 1 2 5 6 2 4 3 3 5 5 6 5 3 3 1 2 2 3
10 10 10 10 9 9 9 9 10 10 9 9 9 9 9 9 9 9 9 8 7 6 5 6 8 7 6 3 1 1 1 1 1 1 1 2 1 2 2 3 4 4 3 3 3 3 3 4 4 5 4 4 3 2 3 1 1 1 1 6 7 2 3 4 4 6 5 4 4 4 3 1 2 0
10 11 11 10 10 9 9 9 9 9 9 8 8 9 9 8 9 9 8 8 8 8 7 6 4 1 3 3 3 2 1 2 1 1 1 1 2 2 3 4 3 3 4 4 3 4 4 4 2 3 4 4 3 3 3 2 2 1 4 3 5 7 2 1 2 4 4 5 5 5 4 2 1 0
9 9 9 10 10 10 10 9 9 9 9 9 8 8 8 7 8 10 6 9 7 7 6 7 7 7 7 4 1 1 4 3 3 3 4 3 3 3 4 5 5 4 4 5 6 5 3 1 1 4 4 4 3 2 1 3 3 2 1 1 2 3 2 2 3 3 5 6 5 3 2 2 1 1
9 9 9 9 10 11 11 11 10 9 8 8 9 9 8 10 9 11 10 10 9 9 9 8 7 6 7 7 5 1 1 1 5 5 3 3 4 5 5 5 6 5 5 5 2 2 2 1 3 4 3 3 2 1 2 3 2 2 2 2 2 1 3 2 0 2 3 2 3 2 0 2 2 2
10 9 9 9 10 11 10 10 10 10 9 9 9 9 10 9 10 10 9 9 9 9 9 8 8 9 10 10 9 8 7 5 5 3 3 2 2 3 4 4 4 4 3 1 2 2 2 2 2 3 4 3 2 2 2 2 1 0 1 1 0 1 2 2 2 2 1 2 4 5 5 3 2 4
10 10 10 10 10 10 10 10 10 11 10 10 10 10 9 9 9 9 9 9 9 9 9 9 9 8 9 9 9 9 9 9 5 3 2 1 1 1 1 1 2 2 3 3 3 3 3 3 1 1 2 3 2 2 3 3 2 2 1 1 2 1 1 1 1 3 3 3 3 1 5 7 6 2
Wind_Direction
226 223 222 225 224 220 223 225 223 223 222 224 221 218 226 225 240 251 250 252 250 242 203 234 228 203 206 214 209 210 219 227 224 226 220 218 219 221 221 224 228 230 232 234 236 238 238 239 240 242 243 245 245 246 246 245 244 243 242 241 241 240 239 238 239 238 237 235 232 231 232 232 234 235
219 221 221 219 226 220 218 220 221 225 227 227 226 227 228 226 232 235 245 257 230 251 215 217 230 191 216 214 208 203 218 229 227 225 219 216 218 219 218 220 222 227 230 232 234 236 238 240 241 242 243 244 246 246 247 246 245 243 242 242 242 240 238 238 239 239 237 235 231 229 228 229 230 231
223 219 221 215 219 215 217 225 225 224 228 231 230 232 229 226 228 232 236 254 245 203 243 232 227 208 209 205 203 202 216 227 221 224 223 219 219 219 224 223 224 225 227 229 231 232 234 237 239 241 242 244 245 246 246 246 245 243 241 240 240 240 240 239 239 238 237 234 231 228 227 227 227 228
232 227 225 217 215 214 218 225 227 222 220 224 226 229 227 226 225 228 234 238 256 195 232 239 214 216 205 198 195 204 213 215 205 216 212 221 226 224 232 223 223 226 226 229 231 230 232 234 238 240 242 243 244 245 245 245 245 245 244 244 242 241 239 237 236 236 234 232 229 227 226 226 224 224
235 228 232 225 221 212 216 223 222 221 217 219 223 222 226 223 223 223 225 235 248 243 223 241 229 209 196 216 206 199 203 204 204 207 216 217 214 223 225 231 224 223 224 227 230 232 233 235 235 238 240 241 242 243 244 244 245 245 245 244 242 242 241 240 237 235 232 231 229 227 226 225 224 221
235 231 228 228 227 211 213 214 219 218 215 213 216 221 219 221 221 213 220 230 236 249 215 239 230 208 190 219 196 202 190 207 194 203 211 214 217 222 227 231 234 227 229 228 231 233 237 237 237 236 236 236 237 238 240 242 242 243 243 242 241 240 239 238 237 234 232 230 228 226 226 226 223 218
235 231 231 232 225 216 218 219 217 213 214 212 216 222 220 224 222 215 215 221 230 238 239 229 237 225 200 217 210 211 206 199 186 200 211 213 209 217 229 238 241 232 225 228 232 236 239 240 240 239 238 238 237 238 239 239 240 241 241 241 240 238 236 235 235 233 232 230 228 226 225 225 220 214
230 230 230 231 226 216 220 218 213 213 212 211 213 219 219 220 221 216 211 217 225 233 241 226 230 225 217 230 230 202 206 192 191 205 211 200 227 228 224 237 251 239 230 229 230 233 235 236 239 239 241 241 241 242 242 244 244 245 244 242 240 237 235 234 232 231 230 229 226 224 224 222 214 209
238 231 227 228 224 219 222 219 216 213 212 211 211 215 216 216 217 212 209 213 218 230 237 238 228 222 223 212 196 188 190 201 212 197 217 219 223 229 225 230 238 253 245 240 236 235 236 239 241 243 244 244 245 246 248 250 251 250 247 244 240 238 236 233 231 230 228 225 224 223 222 218 209 208
239 233 228 225 224 220 226 218 214 211 213 211 212 215 215 213 210 208 206 207 213 224 241 239 238 219 220 198 205 193 198 193 194 217 236 251 238 243 257 237 234 222 225 240 237 233 238 239 241 245 247 246 245 246 248 250 251 250 249 246 243 240 237 233 231 229 226 224 223 220 218 214 209 209
248 240 232 230 226 220 217 218 216 215 215 214 213 215 215 208 206 204 203 203 210 218 230 234 229 233 224 217 219 201 205 205 197 196 210 245 210 218 224 253 234 213 243 241 236 242 247 241 239 234 234 239 240 242 244 244 244 244 242 240 238 236 235 233 231 230 226 222 218 214 212 211 210 211
244 235 231 226 233 226 225 224 219 218 219 217 213 211 211 207 205 203 199 202 209 215 220 225 226 220 224 213 224 129 180 199 222 210 199 230 226 221 214 223 235 215 217 233 234 229 229 235 232 235 238 237 238 238 240 240 243 243 239 236 234 233 232 231 228 226 223 218 213 209 209 209 211 213
239 236 229 224 229 235 227 219 220 223 219 212 214 214 206 200 200 201 197 202 207 212 216 221 217 216 220 222 213 207 203 207 214 188 197 230 241 244 239 232 220 223 228 230 243 244 225 227 230 226 235 235 228 233 224 234 225 226 226 227 227 225 224 225 225 225 223 218 212 209 209 209 211 212
250 233 236 240 228 233 230 220 218 218 216 215 217 215 211 206 204 204 202 202 200 205 212 219 211 215 221 218 215 218 220 217 211 190 182 224 234 241 254 267 235 201 210 231 246 248 228 217 235 224 235 239 228 239 222 224 214 205 206 209 213 217 222 223 223 222 221 215 210 209 211 211 211 210
262 245 233 234 235 236 239 237 230 224 222 220 219 214 205 202 204 209 207 205 199 201 211 212 213 217 223 221 212 218 218 212 207 204 196 222 223 234 241 258 267 185 201 217 243 257 224 203 231 229 230 233 232 241 243 200 198 210 201 203 213 222 223 225 225 223 218 212 209 209 209 209 207 205
252 247 245 245 246 240 240 242 240 237 231 228 226 223 214 204 199 199 198 202 200 200 210 216 217 212 216 218 210 215 213 215 210 203 197 212 215 220 221 221 238 187 174 187 221 255 212 198 225 236 231 223 223 234 205 222 207 200 198 188 193 202 214 219 219 215 211 208 208 206 198 201 203 199
257 251 245 243 241 244 240 239 236 238 237 228 228 228 225 216 204 202 202 199 200 195 205 214 217 211 208 213 216 208 210 201 209 197 204 215 216 211 224 231 227 167 173 187 221 247 232 193 219 232 231 216 223 199 181 223 209 190 182 174 172 184 195 201 198 190 185 184 184 182 185 185 189 190
347 336 326 303 280 260 248 239 235 237 237 237 223 223 223 219 216 207 202 200 199 195 199 205 218 208 204 215 213 207 190 192 202 178 205 198 212 217 224 228 205 143 168 195 207 241 233 200 221 234 234 196 200 203 209 206 213 195 177 162 159 165 174 178 168 160 173 189 177 180 176 180 181 181
347 346 333 316 296 286 261 235 230 238 241 238 232 218 213 216 212 211 210 200 194 202 204 206 216 213 207 216 210 191 185 196 197 193 201 190 198 206 71 13 226 201 198 201 190 238 221 200 217 235 229 179 190 172 193 199 205 192 170 159 153 156 167 174 155 154 183 196 174 166 166 179 187 188
355 343 332 326 308 282 266 249 233 231 237 239 234 225 212 209 209 210 208 201 202 201 202 210 211 211 210 207 202 183 180 189 184 149 142 150 164 181 204 225 213 222 204 201 197 216 210 184 209 229 208 178 176 169 210 182 192 184 167 157 153 157 164 173 157 152 176 193 179 156 164 174 184 193
344 334 343 347 339 327 303 305 272 238 224 236 232 221 206 198 200 204 197 196 199 204 207 211 212 213 199 190 190 183 181 181 169 173 179 203 184 193 213 226 220 226 194 200 205 202 219 184 200 199 172 187 183 167 179 169 183 170 159 154 153 158 165 167 165 157 161 174 187 182 160 164 173 164
344 343 349 359 8 347 334 342 302 238 221 220 219 211 197 193 195 197 192 181 200 201 203 206 205 195 185 183 184 185 182 175 166 176 202 196 181 200 208 217 217 223 204 201 191 193 214 162 180 179 139 148 155 144 163 144 134 143 143 147 151 159 168 168 165 168 164 167 174 183 183 151 143 151
352 349 343 356 10 0 356 12 2 314 210 215 218 205 195 192 191 191 183 181 174 185 194 188 169 172 172 168 167 184 181 178 182 193 203 175 179 196 208 212 192 215 226 206 185 192 181 162 183 168 159 205 139 73 158 161 150 150 146 141 139 152 156 162 162 164 167 168 171 168 161 149 146 144
359 354 354 358 9 357 358 12 17 15 5 226 209 207 196 179 182 171 172 177 172 171 172 165 168 168 168 166 169 171 190 196 200 202 196 185 183 188 201 205 197 214 198 158 180 194 187 182 172 193 196 184 186 173 161 156 156 150 151 145 143 144 142 134 125 159 162 162 162 155 154 158 161 149
357 358 1 6 358 350 2 12 20 15 18 20 49 71 135 142 149 154 174 180 174 174 177 172 178 170 163 165 171 173 188 193 204 203 190 188 187 191 198 201 207 211 180 167 184 177 164 177 178 175 188 156 128 151 179 163 159 162 161 159 151 155 162 167 144 137 121 125 154 155 160 164 176 163
0 358 356 0 350 351 1 18 20 15 14 23 33 40 49 69 110 144 164 173 175 175 174 170 175 165 165 167 172 180 190 190 171 218 204 197 191 184 178 182 182 200 183 167 180 187 161 176 181 178 181 168 161 162 150 168 164 161 155 161 166 163 172 166 158 144 144 147 144 160 168 172 180 166
333 343 338 325 339 351 358 11 14 18 18 20 26 32 39 41 60 83 124 157 155 159 159 153 155 153 160 172 178 185 186 199 178 186 221 256 251 220 226 184 190 196 123 158 186 188 181 174 184 181 179 186 161 178 167 154 164 150 154 163 166 160 176 171 174 173 159 146 130 126 127 151 175 177
313 323 328 328 337 350 358 2 11 12 19 24 23 29 32 34 43 56 45 46 139 131 120 138 145 146 150 145 126 130 150 164 151 166 188 352 275 230 216 200 197 79 106 151 185 203 193 170 183 203 177 170 172 178 181 165 143 162 164 156 168 176 171 173 170 168 161 138 136 150 145 145 155 163
292 294 304 319 329 343 348 347 5 15 13 17 20 26 32 35 42 42 52 51 65 72 69 70 65 70 71 74 78 69 85 80 84 63 356 357 290 250 5 60 59 72 76 77 138 159 206 82 132 135 115 174 177 178 162 163 164 168 166 151 179 191 173 175 172 172 169 164 159 164 176 162 156 171
273 277 296 292 294 333 339 344 346 23 31 27 23 22 24 37 38 39 41 45 53 60 62 62 61 62 72 59 59 60 61 58 55 69 356 294 332 45 108 93 46 66 105 142 162 203 168 145 161 182 184 174 207 32 14 122 149 155 161 175 131 119 166 173 174 169 165 170 170 167 163 172 169 163
273 273 258 275 289 287 282 278 295 351 27 44 37 22 17 26 34 42 46 50 54 45 44 39 45 47 59 60 48 40 40 45 30 357 275 143 183 150 104 83 71 50 24 33 63 125 131 178 157 156 160 156 115 141 212 261 154 149 170 177 172 152 162 163 165 164 168 161 157 160 160 170 177 179
305 301 313 303 288 299 330 343 4 20 26 48 51 56 36 22 30 61 71 74 70 67 60 52 31 31 45 50 42 39 39 35 23 2 359 86 160 187 119 99 60 9 46 16 13 66 216 213 175 169 161 188 163 186 188 196 171 166 161 162 168 123 134 148 157 164 161 156 155 165 172 182 198 193
313 315 321 320 340 354 356 354 10 18 16 18 31 53 61 58 46 37 27 48 60 62 62 61 51 33 35 47 46 34 35 23 12 9 18 2 87 39 71 106 120 87 57 340 341 6 43 2 173 153 166 179 171 162 162 154 180 167 158 163 167 165 162 154 153 152 150 160 171 175 194 198 205 206
308 334 337 351 345 346 352 360 4 5 14 14 12 25 32 60 68 68 63 58 62 71 73 73 64 47 45 58 64 53 35 9 9 26 35 6 321 86 101 102 91 95 99 26 30 353 49 87 81 90 97 88 80 99 116 113 136 155 163 165 170 166 152 151 151 151 161 166 164 162 190 201 203 202
14 341 354 346 349 345 340 2 1 352 6 5 2 6 27 55 72 89 93 87 81 84 89 84 73 68 54 37 36 37 34 31 9 13 24 31 30 81 103 98 97 90 81 64 37 5 13 108 126 117 107 107 90 59 25 16 135 139 162 162 167 150 148 156 159 160 170 170 161 168 164 184 201 203
10 7 355 348 348 345 350 352 348 357 357 357 355 350 355 12 51 70 78 114 112 94 91 84 71 67 63 54 38 36 29 19 23 26 30 29 39 57 86 93 91 71 65 74 50 25 28 26 4 113 136 135 111 133 97 12 21 149 146 151 144 149 142 156 161 158 169 170 193 172 178 195 220 193
19 7 2 358 357 359 355 350 352 352 9 355 345 349 2 357 357 30 63 121 91 78 70 85 84 93 84 66 50 36 33 33 27 24 30 35 40 54 90 85 85 101 90 68 55 41 7 57 49 65 68 72 96 109 86 88 31 26 98 115 125 141 147 150 152 164 179 180 167 181 194 201 200 164
20 14 10 10 9 5 4 3 358 3 7 9 8 9 5 336 339 24 100 84 73 52 47 46 74 87 90 102 88 62 24 31 30 24 23 38 64 59 81 107 99 90 110 87 56 18 21 71 62 53 74 85 111 85 114 29 87 46 34 53 141 142 148 145 148 155 154 163 171 172 176 201 206 163
25 20 16 11 12 10 13 10 10 10 9 13 19 18 17 21 19 10 9 4 7 9 360 324 331 359 24 74 94 68 27 14 9 12 35 16 57 101 99 103 114 117 127 84 37 60 114 121 118 113 115 126 132 169 181 113 15 347 25 14 116 130 153 157 144 152 152 149 145 127 125 43 65 67
24 26 21 15 14 13 17 16 18 18 14 17 22 19 24 29 23 26 23 15 14 5 14 12 350 2 348 341 357 43 42 40 305 308 173 173 169 139 139 165 149 149 137 152 154 165 162 148 143 141 158 162 188 183 156 96 47 358 20 29 19 69 164 164 148 150 146 151 146 158 159 149 197 286
30 32 24 14 15 17 19 20 15 18 16 15 19 26 30 29 32 26 29 25 24 22 19 7 344 339 255 325 340 297 271 267 235 180 184 207 179 179 164 154 157 163 157 179 191 172 187 187 181 168 124 115 125 132 99 97 76 9 17 14 10 10 14 304 143 160 139 150 143 137 132 139 156 172
39 38 27 25 22 18 16 19 14 17 16 16 20 19 20 31 36 24 32 27 24 22 26 22 11 4 3 2 59 19 307 286 230 186 177 171 171 176 164 169 175 180 180 180 196 190 177 61 99 100 110 108 88 72 121 166 166 180 1 345 50 47 57 18 30 42 138 148 143 128 109 108 123 80
34 34 30 20 21 21 21 18 15 14 12 14 20 16 20 25 19 20 18 14 11 12 9 0 357 6 10 7 7 354 7 24 304 296 257 175 173 160 176 190 188 182 192 196 141 141 162 165 113 106 101 97 74 115 157 181 159 112 149 121 93 29 50 40 77 12 15 5 358 12 12 124 140 128
30 30 26 20 21 25 23 16 17 12 9 12 14 22 28 26 25 21 18 15 15 10 3 359 0 10 7 0 351 355 356 350 314 281 269 281 202 195 182 179 174 174 186 150 145 155 144 122 127 128 142 144 127 97 131 132 161 160 133 83 22 73 101 102 99 53 8 307 269 265 263 258 335 39
35 34 32 29 27 25 21 21 22 23 16 16 16 21 22 25 28 24 24 20 17 8 6 6 5 7 10 7 7 2 348 331 314 288 296 301 301 329 298 185 187 194 211 178 159 152 150 133 111 101 104 110 104 152 151 157 153 158 158 172 120 48 47 349 122 130 110 101 61 47 236 230 233 224